{"data":{"norad_id":59910,"epoch":"2026-05-25T02:05:16.158048Z","epoch_age_seconds":57689,"freshness":"FRESH","line1":"1 59910U 24102B   26145.08699257  .00000079  00000+0  14235-3 0  9990","line2":"2 59910  44.9749   4.3387 0009634 133.0596 227.1044 13.99174586101675","mean_motion":13.99174586,"eccentricity":0.0009634,"inclination_deg":44.9749,"raan_deg":4.3387,"arg_perigee_deg":133.0596,"mean_anomaly_deg":227.1044,"bstar":0.00014235,"rev_number":10167,"period_min":102.91782129325,"perigee_km":889.64627540181,"apogee_km":903.66334426099,"semimajor_km":7274.7918098314,"source":"CELESTRAK","updated_at":"2026-05-25T13:38:01.745471Z"}}